DW8162 Weather Reports


Display with metric or nautical units.
time (UTC)temp
F
wind
direction
speed
MPH
gust
MPH
rain 1hr
in
rain 24hr
in
rain mn
in
humidity
%
barometer
mb
20260509212427 61 293 0.0 2.0 0.00 0.14 0.14 77 1009.3
20260509205427 58 293 0.0 0.0 0.00 0.14 0.14 84 1009.6
20260509202425 57 293 0.0 0.0 0.00 0.14 0.14 87 1009.6
20260509195424 56 293 0.0 0.0 0.00 0.14 0.14 86 1009.6
20260509185422 57 293 0.0 0.0 0.01 0.14 0.14 86 1010.4
20260509182422 56 293 0.0 0.0 0.01 0.14 0.14 88 1010.3
20260509175421 55 293 0.0 0.0 0.03 0.13 0.13 89 1010.8
20260509172420 54 293 0.0 0.0 0.05 0.13 0.13 89 1011.1
20260509165419 54 293 0.0 0.0 0.03 0.10 0.10 88 1010.6
20260509162418 54 293 0.0 0.0 0.08 0.08 0.08 88 1010.9
20260509155417 54 293 0.0 2.0 0.07 0.07 0.07 86 1011.3
20260509152416 55 294 0.0 0.0 0.00 0.00 0.00 84 1011.8
20260509145446 56 294 0.0 0.0 0.00 0.00 0.00 82 1011.5
20260509142415 54 294 0.0 0.0 0.00 0.00 0.00 82 1011.2
20260509135414 54 294 0.0 0.0 0.00 0.00 0.00 85 1011.4
20260509132413 53 294 0.0 0.0 0.00 0.00 0.00 86 1010.9
20260509125443 53 301 0.0 0.0 0.00 0.00 0.00 85 1011.1
20260509115441 51 301 0.0 0.0 0.00 0.00 0.00 87 1011.1
20260509112440 50 302 0.0 0.0 0.00 0.00 0.00 88 1010.8
20260509095437 48 291 0.0 0.0 0.00 0.00 0.00 87 1010.5
20260509092436 48 291 0.0 0.0 0.00 0.00 0.00 87 1010.6
20260509085437 47 291 0.0 0.0 0.00 0.00 0.00 86 1010.7
20260509082435 47 291 0.0 0.0 0.00 0.00 0.00 85 1010.9
20260509075434 48 291 0.0 0.0 0.00 0.00 0.00 86 1010.9
20260509072433 48 291 0.0 0.0 0.00 0.00 0.00 86 1011.5
20260509065432 49 291 0.0 0.0 0.00 0.00 0.00 82 1011.7
20260509062431 51 291 0.0 0.0 0.00 0.00 0.00 79 1011.9
20260509055430 52 291 0.0 0.0 0.00 0.00 0.00 77 1012.1
20260509052429 53 291 0.0 0.0 0.00 0.00 0.00 77 1012.3
20260509045429 53 291 0.0 0.0 0.00 0.00 0.00 75 1012.4
20260509042428 53 291 0.0 0.0 0.00 0.00 0.00 75 1012.2
20260509035427 53 291 0.0 0.0 0.00 0.00 0.00 77 1012.4
20260509032426 53 291 0.0 0.0 0.00 0.00 0.00 78 1012.4
20260509022424 54 291 0.0 0.0 0.00 0.00 0.00 74 1012.4
20260509015423 54 291 0.0 0.0 0.00 0.00 0.00 75 1012.1
20260509012422 54 291 0.0 0.0 0.00 0.00 0.00 73 1012.2
20260509005422 55 291 0.0 0.0 0.00 0.00 0.00 70 1011.9
20260509002421 56 291 0.0 0.0 0.00 0.00 0.00 69 1011.8
20260508235420 57 291 0.0 0.0 0.00 0.00 0.00 68 1011.6
20260508232419 58 291 0.0 0.0 0.00 0.00 0.00 65 1011.0
20260508225418 59 291 0.0 0.0 0.00 0.00 0.00 60 1011.3
20260508222417 60 291 0.0 1.0 0.00 0.00 0.00 54 1011.0
20260508215416 62 275 1.0 7.0 0.00 0.00 0.00 48 1010.8